CZ-3C DEB, 40177

Orbit data source: Space-Track

CZ-3C DEB, 40177 is space debris in HEO originally from a launch on Sun, 31 Oct 2010 UTC launched from the Xichang Space Center, China (XSC). Debris objects in space refer to the collection of defunct objects orbiting the Earth. Examples of debris include non-operational satellites, rocket bodies, and fragments generated from explosions, collisions, or faulty payload assembly.

Loading next visibility...
Identifier
40177, 2010-057AF
Orbit
HEO
Last TLE update
9 months ago
Origin
Manufacturer
CALT
Mission
Spacecraft
Bus & Motor
Unknown
Mass
Unknown
Launch date (UTC)
2010-10-31 (15 years ago)
Launch vehicle
Unknown
Launch site
Xichang Space Center, China (XSC)
Object type
Payload
Rocket body
Debris
Shape & HBR
Unknown
Radar Cross Section
Medium (>0.1 m² and <1 m²)

Expand to show TLE details & history

TLE from 9 months ago
0 CZ-3C DEB
1 40177U 10057AF  24222.22662896  .00001864  00000-0  20836-1 0  9994
2 40177  17.6309 314.2845 7214565 223.2477  49.5393  2.21111368 91436
Epoch: 2024-08-09T05:26Z
Definitive object data (Epoch: 2024-08-09T05:26:20.742Z)
Latitude
0.00026°
Longitude
-85.45207°
Altitude
18,835.457 km
Speed
3.95 km/s
True Right ascension
20h 57m 21s
True Declination
0° 00' 01"
Sunlit
Object was in daylight at TLE epoch
Visualization TLE readout
Latitude
-8.18997°
Longitude
24.66631°
Altitude
32,930.005 km
Speed
2.053 km/s
Apparent Right ascension
04h 06m 34s
Apparent Declination
-12° 33' 43"
Sunlit
Object is in daylight
Visualization observer readout
Local Sidereal Time
14:34:48
Azimuth
317.136° NNW
Elevation
-55.993°
Doppler factor
1
Orbital elements
Apogee altitude
36,473.852 km
Perigee altitude
555.609 km
Semi-major axis
24,892.868 km
Eccentricity
0.7214565
Inclination
17.6309°
RAAN
314.2845°
Arg. of periapsis
223.2477°
True anomaly
136.77467°
Mean anomaly
49.5393°
Eccentric anomaly
90.87094°
Mean motion
0.55263 °/min
BSTAR
0.020836
Orbital period
651.44 mins
Loading maneuver chart data...
Loading SW <> Apogee altitude chart data...
Loading historical data...
Loading historical data...
Loading historical data...
Loading historical data...
Loading historical data...
Loading historical data...
Loading historical data...

CZ-3C DEB Visibility forecast

Observer location: undefined°, undefined°

Span
Click to sort rows by Start time (UTC) header in descending order
Start Az.
Max El. time (UTC)
Max El. Az.
Max El.
End time (UTC)
End Az.
576 mins2025-05-09 13:48:58.373Z219.066° SW2025-05-09 13:58:58.373Z162.138° S28.382°2025-05-09 23:24:58.373Z153.044° SSE
|